Hereford, TX

10:20 PM CDT on March 22, 2017 (GMT -0500)
Hereford Municipal

Weather History for KHRX - May, 2013

Change the Weather History Date:

Saturday, May 18, 2013

  Actual Average (KAMA) Record (KAMA)
Temperature  
Mean Temperature 80 °F -  
Max Temperature 96 °F 79 °F 102 °F (1996)
Min Temperature 63 °F 50 °F 38 °F (1971)
Cooling Degree Days 14    
Growing Degree Days 30 (Base 50)    
Moisture  
Dew Point 30 °F    
Average Humidity 20    
Maximum Humidity 60    
Minimum Humidity 6    
Precipitation  
Precipitation 0.00 in - - ()
Sea Level Pressure  
Sea Level Pressure 29.82 in    
Wind  
Wind Speed 10 mph (SSW)    
Max Wind Speed 23 mph    
Max Gust Speed 30 mph    
Visibility 9 miles    
Events      
Averages and records for this station are not official NWS values.
T = Trace of Precipitation, MM = Missing Value Source: NWS Daily Summary

Daily Weather History Graph

Daily Weather History Graph

Search for Another Location

Airport or City:

Trip Planner

Search our weather history database for the weather conditions in past years. The results will help you decide how hot, cold, wet, or windy it might be!

Date:

Astronomy

May. 18, 2013 Rise Set
Actual Time 6:43 AM CDT 8:48 PM CDT
Civil Twilight 6:15 AM CDT 9:16 PM CDT
Nautical Twilight 5:41 AM CDT 9:51 PM CDT
Astronomical Twilight 5:04 AM CDT 10:28 PM CDT
Moon 2:09 PM CDT (5/18) 2:20 AM CDT (5/18)
Length of Visible Light 15h 01m
Length of Day
14h 04m
First Quarter, 55% of the Moon is Illuminated
May 18
First Quarter
May 24
Full
May 31
Last Quarter
Jun 8
New
Jun 16
First Quarter

Hourly Weather History & Observations

Time (CDT) Temp. Dew Point Humidity Pressure Visibility Wind Dir Wind Speed Gust Speed Precip Events Conditions
12:15 AM 74.5 °F 58.8 °F 58% 29.90 in 10.0 mi East 4.6 mph - N/A   Clear
12:35 AM 73.8 °F 59.0 °F 60% 29.89 in 10.0 mi ENE 5.8 mph - N/A   Clear
12:55 AM 75.9 °F 55.4 °F 49% 29.88 in 10.0 mi SE 16.1 mph 21.9 mph N/A   Clear
1:15 AM 79.0 °F 58.5 °F 49% 29.89 in 10.0 mi SSE 16.1 mph 23.0 mph N/A   Clear
1:35 AM 77.2 °F 59.9 °F 55% 29.85 in 10.0 mi ENE 6.9 mph 27.6 mph N/A   Clear
1:55 AM 77.4 °F 57.9 °F 51% 29.89 in 10.0 mi SSE 11.5 mph 24.2 mph N/A   Clear
2:15 AM 77.0 °F 51.1 °F 40% 29.90 in 10.0 mi SSW 21.9 mph 25.3 mph N/A   Clear
2:35 AM 77.0 °F 53.2 °F 44% 29.91 in 10.0 mi North - - N/A   Clear
2:55 AM 82.2 °F 32.9 °F 17% 29.89 in 10.0 mi SSW 8.1 mph - N/A   Scattered Clouds
3:15 AM 79.0 °F 36.7 °F 22% 29.88 in 10.0 mi SSW 8.1 mph - N/A   Clear
3:35 AM 76.6 °F 35.2 °F 22% 29.86 in 10.0 mi South 9.2 mph - N/A   Clear
3:55 AM 73.6 °F 35.4 °F 25% 29.85 in 10.0 mi SE 10.4 mph - N/A   Clear
4:15 AM 69.4 °F 35.6 °F 29% 29.85 in 10.0 mi SE 8.1 mph - N/A   Clear
4:35 AM 72.1 °F 37.0 °F 28% 29.85 in 10.0 mi SE 11.5 mph - N/A   Clear
4:55 AM 69.4 °F 37.9 °F 32% 29.85 in 10.0 mi SE 9.2 mph - N/A   Clear
5:15 AM 68.2 °F 39.4 °F 35% 29.84 in 10.0 mi SE 8.1 mph - N/A   Clear
5:35 AM 67.8 °F 41.0 °F 38% 29.85 in 10.0 mi SE 8.1 mph - N/A   Clear
5:55 AM 66.7 °F 42.1 °F 41% 29.85 in 10.0 mi SE 12.7 mph - N/A   Clear
6:15 AM 66.2 °F 41.9 °F 41% 29.86 in 10.0 mi SE 11.5 mph - N/A   Clear
6:35 AM 66.0 °F 41.2 °F 40% 29.86 in 10.0 mi SSE 11.5 mph - N/A   Clear
6:55 AM 65.5 °F 41.2 °F 41% 29.86 in 10.0 mi SSE 9.2 mph - N/A   Clear
7:15 AM 64.9 °F 41.0 °F 42% 29.87 in 10.0 mi South 8.1 mph - N/A   Clear
7:35 AM 63.7 °F 41.0 °F 43% 29.87 in 10.0 mi SSW 4.6 mph - N/A   Clear
7:55 AM 65.3 °F 40.5 °F 40% 29.88 in 10.0 mi SSW 4.6 mph - N/A   Clear
8:15 AM 67.3 °F 38.8 °F 35% 29.88 in 7.0 mi SW 5.8 mph - N/A   Clear
8:35 AM 72.9 °F 33.4 °F 24% 29.88 in 7.0 mi WSW 5.8 mph - N/A   Clear
8:55 AM 75.6 °F 29.3 °F 18% 29.88 in 10.0 mi WSW 11.5 mph - N/A   Clear
9:15 AM 77.2 °F 28.2 °F 17% 29.88 in 10.0 mi WSW 12.7 mph - N/A   Clear
9:35 AM 79.9 °F 28.8 °F 15% 29.88 in 10.0 mi North - - N/A   Clear
9:55 AM 82.4 °F 28.2 °F 14% 29.88 in 10.0 mi North - - N/A   Clear
10:15 AM 85.3 °F 27.3 °F 12% 29.87 in 10.0 mi SW 9.2 mph - N/A   Clear
10:35 AM 88.2 °F 26.8 °F 11% 29.87 in 10.0 mi SSW 10.4 mph - N/A   Clear
10:55 AM 90.0 °F 26.2 °F 10% 29.87 in 10.0 mi SW 12.7 mph 17.3 mph N/A   Clear
11:15 AM 91.2 °F 23.5 °F 9% 29.87 in 10.0 mi SW 11.5 mph 18.4 mph N/A   Clear
11:35 AM 91.8 °F 25.3 °F 9% 29.86 in 10.0 mi WSW 9.2 mph - N/A   Clear
11:55 AM 92.1 °F 25.0 °F 9% 29.86 in 10.0 mi SSW 11.5 mph 17.3 mph N/A   Clear
12:15 PM 92.8 °F 25.5 °F 9% 29.85 in 10.0 mi South 12.7 mph 18.4 mph N/A   Clear
12:35 PM 93.4 °F 23.5 °F 8% 29.85 in 10.0 mi SSW 11.5 mph 18.4 mph N/A   Clear
12:55 PM 94.3 °F 21.9 °F 7% 29.84 in 10.0 mi SSW 12.7 mph 23.0 mph N/A   Clear
1:15 PM 94.8 °F 21.6 °F 7% 29.83 in 10.0 mi SSW 12.7 mph 20.7 mph N/A   Clear
1:35 PM 95.7 °F 21.0 °F 7% 29.83 in 10.0 mi North - - N/A   Clear
2:15 PM 95.0 °F 20.3 °F 7% 29.81 in 10.0 mi SSW 17.3 mph - N/A   Clear
2:35 PM 95.7 °F 22.1 °F 7% 29.81 in 10.0 mi North - - N/A   Clear
2:55 PM 95.2 °F 21.4 °F 7% 29.80 in 10.0 mi SSW 23.0 mph 29.9 mph N/A   Clear
3:15 PM 95.7 °F 21.7 °F 7% 29.80 in 10.0 mi North - - N/A   Clear
3:35 PM 96.1 °F 21.9 °F 7% 29.80 in 10.0 mi SSW 18.4 mph 27.6 mph N/A   Clear
3:55 PM 93.4 °F 21.6 °F 7% 29.78 in 10.0 mi SW 15.0 mph - N/A   Clear
4:15 PM 96.1 °F 20.1 °F 6% 29.78 in 10.0 mi North - - N/A   Clear
4:35 PM 95.5 °F 19.6 °F 6% 29.78 in 10.0 mi North - - N/A   Clear
4:55 PM 95.2 °F 19.8 °F 7% 29.77 in 10.0 mi North - - N/A   Clear
5:15 PM 94.6 °F 18.0 °F 6% 29.77 in 10.0 mi North - - N/A   Clear
5:35 PM 93.6 °F 18.3 °F 6% 29.76 in 10.0 mi North - - N/A   Clear
5:55 PM 92.7 °F 18.1 °F 7% 29.76 in 10.0 mi North - - N/A   Clear
6:15 PM 92.5 °F 17.2 °F 6% 29.75 in 10.0 mi North - - N/A   Clear
6:35 PM 92.7 °F 17.6 °F 6% 29.74 in 10.0 mi North - - N/A   Clear
6:55 PM 92.3 °F 17.8 °F 7% 29.73 in 10.0 mi West 20.7 mph - N/A   Clear
7:15 PM 91.2 °F 17.6 °F 7% 29.73 in 10.0 mi North - - N/A   Clear
7:35 PM 90.7 °F 18.0 °F 7% 29.73 in 10.0 mi North - - N/A   Clear
7:55 PM 89.1 °F 17.8 °F 7% 29.72 in 10.0 mi North - - N/A   Clear
8:15 PM 86.5 °F 18.0 °F 8% 29.72 in 7.0 mi West 13.8 mph - N/A   Clear
8:35 PM 81.0 °F 18.3 °F 10% 29.72 in 7.0 mi West 8.1 mph - N/A   Clear
8:55 PM 78.3 °F 19.4 °F 11% 29.72 in 2.0 mi WSW 6.9 mph - N/A   Haze
9:15 PM 76.8 °F 19.6 °F 12% 29.72 in 2.0 mi West 10.4 mph - N/A   Haze
9:35 PM 73.9 °F 19.6 °F 13% 29.73 in 1.8 mi North - - N/A   Haze
9:55 PM 72.7 °F 21.9 °F 15% 29.73 in 1.2 mi WSW 6.9 mph - N/A   Haze
10:15 PM 68.9 °F 19.8 °F 15% 29.74 in 3.0 mi SW 4.6 mph - N/A   Haze
10:35 PM 67.8 °F 23.4 °F 19% 29.74 in 1.5 mi West 4.6 mph - N/A   Haze
10:55 PM 69.3 °F 21.2 °F 16% 29.75 in 7.0 mi WNW 11.5 mph - N/A   Clear
11:15 PM 66.7 °F 21.6 °F 18% 29.75 in 10.0 mi West 8.1 mph - N/A   Clear
11:35 PM 71.1 °F 19.0 °F 14% 29.76 in 10.0 mi WNW 11.5 mph - N/A   Clear
11:55 PM 65.8 °F 22.8 °F 20% 29.76 in 10.0 mi WNW 10.4 mph - N/A   Clear